GW5385 Weather Reports


time (UTC)temp
C
wind
direction
speed
KPH
gust
KPH
rain 1hr
cm
rain 24hr
cm
rain mn
cm
humidity
%
barometer
mb
20260831194545 22 309 4.8 14.5 0.00 0.00 0.00 39 1017.8
20260831193042 22 293 4.8 12.9 0.00 0.00 0.00 39 1017.8
20260831191536 21 314 4.8 19.3 0.00 0.00 0.00 40 1017.9
20260831190049 21 259 1.6 11.3 0.00 0.00 0.00 40 1018.2
20260831184533 21 8 6.4 16.1 0.00 0.00 0.00 41 1018.3
20260831183045 21 303 1.6 16.1 0.00 0.00 0.00 42 1018.5
20260831181528 20 53 3.2 14.5 0.00 0.00 0.00 42 1018.5
20260831180025 20 37 8.0 22.5 0.00 0.00 0.00 42 1018.6
20260831174524 20 1 6.4 24.1 0.00 0.00 0.00 44 1018.7
20260831173022 20 22 8.0 17.7 0.00 0.00 0.00 45 1018.7
20260831171519 19 229 3.2 9.7 0.00 0.00 0.00 45 1018.7
20260831170018 19 281 1.6 14.5 0.00 0.00 0.00 48 1018.7
20260831164513 18 321 1.6 11.3 0.00 0.00 0.00 48 1018.7
20260831163033 18 323 1.6 9.7 0.00 0.00 0.00 50 1018.7
20260831161512 17 262 3.2 11.3 0.00 0.00 0.00 50 1018.6
20260831160007 17 327 0.0 6.4 0.00 0.00 0.00 51 1018.6
20260831154618 16 285 1.6 12.9 0.00 0.00 0.00 51 1018.5
20260831153056 16 261 3.2 14.5 0.00 0.00 0.00 52 1018.4
20260831151551 15 304 3.2 14.5 0.00 0.00 0.00 54 1018.3
20260831150047 15 314 1.6 9.7 0.00 0.00 0.00 56 1018.4
20260831144544 14 244 3.2 8.0 0.00 0.00 0.00 57 1018.2
20260831143039 13 271 0.0 3.2 0.00 0.00 0.00 60 1018.1
20260831141534 12 268 0.0 3.2 0.00 0.00 0.00 61 1018.0
20260831140038 12 295 0.0 3.2 0.00 0.00 0.00 64 1017.8
20260831134527 11 314 0.0 8.0 0.00 0.00 0.00 64 1017.6
20260831133022 10 316 0.0 3.2 0.00 0.00 0.00 68 1017.6
20260831131530 9 257 0.0 1.6 0.00 0.00 0.00 71 1017.3
20260831130032 8 279 0.0 3.2 0.00 0.00 0.00 75 1017.1
20260831124517 7 290 0.0 1.6 0.00 0.00 0.00 77 1016.9
20260831123013 7 288 0.0 3.2 0.00 0.00 0.00 77 1016.8
20260831121515 7 284 0.0 1.6 0.00 0.00 0.00 79 1016.7
20260831120009 6 234 0.0 4.8 0.00 0.00 0.00 81 1016.5
20260831114506 6 293 0.0 0.0 0.00 0.00 0.00 78 1016.5
20260831113004 7 293 0.0 0.0 0.00 0.00 0.00 76 1016.4
20260831111507 7 274 0.0 4.8 0.00 0.00 0.00 75 1016.3
20260831110001 8 278 0.0 1.6 0.00 0.00 0.00 73 1016.4
20260831104559 8 338 3.2 9.7 0.00 0.00 0.00 72 1016.3
20260831103103 8 303 0.0 4.8 0.00 0.00 0.00 73 1015.9
20260831101555 8 314 0.0 3.2 0.00 0.00 0.00 75 1015.9
20260831100052 8 207 0.0 1.6 0.00 0.00 0.00 74 1015.7
20260831094557 8 295 0.0 3.2 0.00 0.00 0.00 74 1015.5
20260831093050 8 277 0.0 4.8 0.00 0.00 0.00 73 1015.5
20260831091550 8 301 1.6 6.4 0.00 0.00 0.00 73 1015.2
20260831090051 8 250 3.2 6.4 0.00 0.00 0.00 72 1015.1
20260831084544 8 243 3.2 8.0 0.00 0.00 0.00 73 1015.1
20260831083044 7 280 0.0 3.2 0.00 0.00 0.00 77 1014.9
20260831081541 7 242 1.6 4.8 0.00 0.00 0.00 78 1014.8
20260831080040 7 285 0.0 1.6 0.00 0.00 0.00 78 1014.7
20260831074534 7 322 0.0 1.6 0.00 0.00 0.00 77 1014.9
20260831073033 7 250 0.0 4.8 0.00 0.00 0.00 76 1014.8
20260831071539 8 238 3.2 8.0 0.00 0.00 0.00 74 1014.8
20260831070023 8 219 0.0 3.2 0.00 0.00 0.00 73 1014.7
20260831064521 9 229 0.0 3.2 0.00 0.00 0.00 71 1014.7
20260831063017 10 290 0.0 4.8 0.00 0.00 0.00 69 1014.8
20260831061514 10 280 1.6 8.0 0.00 0.00 0.00 68 1014.8
20260831060002 11 269 1.6 9.7 0.00 0.00 0.00 67 1014.4
20260831054502 11 303 3.2 9.7 0.00 0.00 0.00 67 1014.4
20260831053005 11 239 1.6 6.4 0.00 0.00 0.00 66 1014.4
20260831051501 11 266 1.6 11.3 0.00 0.00 0.00 66 1014.3
20260831044611 11 269 4.8 12.9 0.00 0.05 0.00 67 1014.3
20260831043058 11 273 4.8 12.9 0.00 0.05 0.00 68 1014.3
20260831041600 11 252 3.2 9.7 0.00 0.05 0.00 68 1014.3
20260831040058 11 275 1.6 8.0 0.00 0.08 0.00 67 1014.4
20260831034557 12 258 6.4 16.1 0.00 0.08 0.00 64 1014.6
20260831033057 13 76 3.2 16.1 0.00 0.08 0.00 60 1014.6
20260831031555 13 316 1.6 6.4 0.00 0.08 0.00 59 1014.2
20260831030003 13 288 1.6 9.7 0.00 0.08 0.00 61 1014.0
20260831024507 14 298 0.0 6.4 0.00 0.08 0.00 57 1013.9
20260831023001 15 266 1.6 9.7 0.00 0.08 0.00 53 1013.7
20260831021505 15 250 1.6 12.9 0.00 0.08 0.00 48 1013.3
20260831020059 15 309 6.4 19.3 0.00 0.08 0.00 46 1013.1
20260831014559 15 246 9.7 20.9 0.00 0.08 0.00 47 1013.1
20260831013109 15 240 9.7 22.5 0.00 0.08 0.00 48 1013.1
20260831011559 15 259 8.0 17.7 0.00 0.08 0.00 49 1013.0
20260831010056 14 290 4.8 20.9 0.00 0.08 0.00 54 1013.1
20260831004554 15 293 6.4 19.3 0.00 0.08 0.00 49 1013.3
20260831003103 15 236 3.2 9.7 0.00 0.08 0.00 55 1013.2
20260831001553 15 314 8.0 17.7 0.00 0.08 0.00 55 1013.5
20260831000023 15 265 4.8 14.5 0.00 0.28 0.00 54 1013.4
20260830234534 15 297 9.7 30.6 0.00 0.28 0.00 52 1013.4
20260830233017 17 297 8.0 16.1 0.00 0.28 0.00 46 1013.2
20260830231518 18 288 6.4 24.1 0.00 0.28 0.00 42 1012.9
20260830230016 18 207 4.8 19.3 0.00 0.30 0.00 42 1012.8
20260830224515 18 339 8.0 20.9 0.00 0.30 0.00 40 1012.8
20260830223012 18 304 8.0 27.4 0.00 0.30 0.00 40 1012.9
20260830221512 18 266 12.9 27.4 0.00 0.30 0.00 40 1013.0
20260830220010 18 274 9.7 33.8 0.00 0.30 0.00 39 1013.2
20260830214510 17 234 11.3 29.0 0.00 0.30 0.00 41 1013.4
20260830213009 17 337 8.0 27.4 0.00 0.30 0.00 44 1013.5
20260830211505 17 273 11.3 22.5 0.00 0.30 0.00 42 1013.7
20260830210004 17 239 11.3 29.0 0.00 0.30 0.00 42 1013.5
20260830204504 18 233 6.4 30.6 0.00 0.30 0.00 43 1013.6
20260830203003 17 232 9.7 22.5 0.00 0.30 0.00 42 1013.5
20260830201604 18 217 9.7 40.2 0.00 0.30 0.00 42 1013.5
20260830200058 18 254 8.0 30.6 0.00 0.30 0.00 41 1013.5